Location: Madrid
(40.4000°N, 3.6830°W)
Time: 21:09:25
(UTC+01:00)

ISS - Pass Details

Date: 26 March 2017
Orbit: 399 x 409 km, 51.6° (Epoch: 24 March)

Event Time Altitude Azimuth Distance (km) Brightness Sun altitude
Rises 22:37:11 0° 233° (SW) 2,300 0.4 -23.5°
Reaches altitude 10° 22:39:14 10° 234° (SW) 1,446 -0.7 -23.9°
Enters shadow 22:40:09 18° 235° (SW) 1,081 -1.4 -24.0°
